[[{"header":{"parameterUnit":"m.s-1","parameterCategory":1,"la1":30.2991,"la2":30.254,"lo1":-89.0895,"lo2":-89.0444,"dy":0.0017,"dx":0.0017,"nx":28,"ny":28,"refTime":"2025-04-15T03:00:00:Z","depth":0,"parameterNumber":2,"parameterNumberName":"U-component_of_WINDS"},"data":[0,0,0,0,0,0,0,0,0,0,0,0,0,0,0,0,0,0,0,0,0,0,0,0,0,0,0,0,0,0,0,0,0,0,0,0,0,0,0,0,0,0,0,0,0,0,0,0,0,0,0,0,0,0,0,0,0,0,0.6361,0.6361,0,0.6374,0.6374,0.6375,0.6392,0.6392,0.6392,0.6393,0.6406,0.6406,0.6406,0,0,0,0,0,0,0,0,0,0,0,0,0,0.6351,0.6351,0.6361,0.6361,0.6361,0.6374,0.6374,0.6375,0.6392,0.6392,0.6393,0.6393,0.6406,0.6406,0.6406,0,0,0,0,0,0,0,0,0,0,0,0,0,0.6359,0.6351,0.6361,0.6371,0.6372,0.6374,0.6374,0.6375,0.6392,0.6392,0.6393,0.6393,0.6406,0.6406,0.6406,0.6399,0,0,0.6407,0.6407,0,0,0,0,0,0,0,0,0.6358,0.6359,0.6369,0.637,0.6372,0.6382,0.6376,0.6383,0.6392,0.6384,0.6393,0.6393,0.6398,0.6398,0.64,0.6399,0.64,0.6407,0.6407,0.6407,0.6407,0,0,0,0,0,0,0,0.6358,0.6358,0.6366,0.637,0.6371,0.6376,0.6377,0.6377,0.6388,0.6385,0.6386,0.6388,0.6398,0.64,0.6401,0.64,0.6407,0.6407,0.6407,0.6407,0.6396,0.6395,0,0,0,0,0,0,0.6355,0.6358,0.6366,0.6366,0.6366,0.6375,0.6377,0.6378,0.6389,0.639,0.6387,0.6388,0.6399,0.64,0.6401,0.6394,0.6407,0.6407,0.6407,0.6396,0.6396,0.6395,0,0,0,0,0,0,0.6355,0.6356,0.6365,0.6363,0.6364,0.6375,0.6376,0.6378,0.638,0.639,0.6392,0.6387,0.64,0.6401,0.64,0.6394,0.6407,0.6407,0.6397,0.6396,0.6395,0.6378,0,0,0,0,0,0,0.6355,0.6356,0.6352,0.6362,0.6364,0.6363,0.6376,0.6378,0.638,0.6382,0.639,0.6392,0.64,0.6399,0.64,0.6395,0.6407,0.6397,0.6396,0.6396,0.6379,0.6377,0.6375,0,0,0,0,0,0.6354,0.6347,0.6352,0.6353,0.636,0.6362,0.6364,0.6373,0.638,0.6377,0.6384,0.6392,0.6395,0.6399,0.64,0.6395,0.6397,0.6397,0.6396,0.638,0.6377,0.6375,0,0,0,0,0,0,0.6335,0.6348,0.6354,0.635,0.6355,0.6365,0.6362,0.637,0.6373,0.6374,0.6386,0.6388,0.6386,0.639,0.6394,0.6389,0.6398,0.6397,0.6385,0.6383,0.6381,0.638,0.6407,0,0,0,0,0,0.633,0.6331,0.6342,0.6337,0.634,0.635,0.6352,0.6359,0.6365,0.6367,0.6374,0.6379,0.6382,0.6383,0.6386,0.6381,0.6383,0.6378,0.6376,0.6374,0.6373,0.6372,0.6369,0.6392,0.6392,0.6392,0,0,0.632,0.6328,0.6327,0.6333,0.6338,0.6339,0.6352,0.6352,0.6352,0.6367,0.6366,0.6372,0.6379,0.6376,0.6375,0.6379,0.6367,0.6373,0.6371,0.6371,0.637,0.6368,0.6366,0.6392,0.6392,0.6392,0,0,0.6302,0.6308,0.6304,0.631,0.6317,0.6325,0.6324,0.6334,0.6339,0.6338,0.635,0.6351,0.6355,0.6359,0.6362,0.6349,0.6357,0.635,0.6339,0.6337,0.6336,0.6334,0.6329,0.6328,0.6349,0.6349,0.6349,0,0.6289,0.629,0.6302,0.6301,0.6304,0.6318,0.6315,0.632,0.6328,0.633,0.6335,0.6341,0.6347,0.6346,0.6343,0.6345,0.6345,0.6348,0.6335,0.6334,0.6332,0.6328,0.6326,0.6348,0.6348,0.6348,0.6348,0,0.6273,0.6274,0.627,0.6279,0.6281,0.628,0.6292,0.6293,0.6301,0.6308,0.6309,0.6316,0.6321,0.6322,0.6329,0.6323,0.6325,0.6333,0.6342,0.6329,0.6325,0.6324,0.6347,0.6347,0.6347,0.6347,0,0,0.6241,0.6257,0.6256,0.626,0.6271,0.6272,0.6272,0.6278,0.6279,0.6285,0.6285,0.6289,0.6297,0.63,0.6308,0.6307,0.6297,0.6315,0.6315,0.6311,0.6291,0.6285,0.6282,0.6303,0.6303,0.6302,0.629,0,0.6224,0.6224,0.6236,0.6233,0.6234,0.6249,0.6249,0.6256,0.6264,0.6266,0.6275,0.6278,0.6287,0.629,0.6289,0.6298,0.6293,0.6299,0.6303,0.6303,0.63,0.628,0.6273,0.6261,0.6289,0.6289,0.6288,0,0.6204,0.621,0.6207,0.622,0.6221,0.622,0.6227,0.623,0.6239,0.6244,0.6249,0.6259,0.6261,0.627,0.6273,0.6277,0.628,0.6285,0.6284,0.6284,0.6294,0.6279,0.6258,0.6256,0.6286,0.6286,0.6286,0,0.6181,0.6188,0.6188,0.6191,0.6206,0.6205,0.6211,0.6221,0.6224,0.623,0.6233,0.6239,0.6242,0.6248,0.6259,0.6265,0.6261,0.6271,0.6266,0.6265,0.6263,0.6263,0.6241,0.6266,0.6266,0.6266,0.6266,0,0.6161,0.6158,0.6177,0.6177,0.6175,0.619,0.6188,0.6195,0.6204,0.6206,0.622,0.6221,0.6237,0.6241,0.625,0.6251,0.6253,0.6258,0.626,0.6256,0.6255,0.6257,0.6258,0.6265,0.6266,0.6266,0.6266,0,0.6133,0.6146,0.6147,0.6161,0.6165,0.6163,0.6176,0.6176,0.6186,0.6188,0.619,0.6204,0.6209,0.6222,0.6231,0.6237,0.6236,0.624,0.6232,0.6234,0.6228,0.6228,0.6205,0.6203,0.623,0.623,0.623,0,0.6119,0.6118,0.6133,0.6135,0.6141,0.6144,0.6148,0.6163,0.6167,0.6178,0.6177,0.6184,0.619,0.6198,0.6209,0.6216,0.6221,0.6213,0.6222,0.6218,0.6221,0.622,0.622,0.621,0.621,0.621,0.6209,0,0.6092,0.6099,0.6104,0.6112,0.6116,0.6123,0.613,0.6131,0.6148,0.6152,0.6158,0.6162,0.6172,0.6178,0.6188,0.6195,0.6205,0.6207,0.6206,0.6201,0.6196,0.6199,0.6226,0.6207,0.6207,0.6207,0.6207,0.6207,0.6071,0.6071,0.6082,0.6087,0.6095,0.6102,0.6104,0.6114,0.6119,0.6128,0.6137,0.6142,0.6153,0.6167,0.6173,0.6178,0.6183,0.6182,0.6181,0.6181,0.6179,0.6197,0.618,0.618,0.618,0.618,0.618,0,0.6044,0.6053,0.6058,0.6068,0.6073,0.6084,0.6093,0.6096,0.6101,0.611,0.6116,0.6124,0.6131,0.6144,0.6152,0.6154,0.6159,0.6155,0.6155,0.6157,0.6174,0.6174,0.6151,0.6151,0.6151,0.6151,0.6151,0.6151,0.6031,0.6032,0.604,0.6046,0.6054,0.606,0.6064,0.6071,0.6079,0.6087,0.6093,0.6102,0.6114,0.6123,0.6131,0.6135,0.6137,0.6132,0.6137,0.6152,0.6155,0.6158,0.6158,0.6132,0.6132,0.6119,0.6119,0.6119]},{"header":{"parameterUnit":"m.s-1","parameterCategory":1,"la1":30.2991,"la2":30.254,"lo1":-89.0895,"lo2":-89.0444,"dy":0.0017,"dx":0.0017,"nx":28,"ny":28,"refTime":"2025-04-15T03:00:00:Z","depth":0,"parameterNumber":3,"parameterNumberName":"V-component_of_WINDS"},"data":[0,0,0,0,0,0,0,0,0,0,0,0,0,0,0,0,0,0,0,0,0,0,0,0,0,0,0,0,0,0,0,0,0,0,0,0,0,0,0,0,0,0,0,0,0,0,0,0,0,0,0,0,0,0,0,0,0,0,-4.332,-4.3321,0,-4.3351,-4.3352,-4.3352,-4.331,-4.3309,-4.3307,-4.3306,-4.3333,-4.3335,-4.3337,0,0,0,0,0,0,0,0,0,0,0,0,0,-4.3221,-4.3223,-4.332,-4.3321,-4.3321,-4.3351,-4.3352,-4.3352,-4.331,-4.3309,-4.3307,-4.3305,-4.3332,-4.3335,-4.3337,0,0,0,0,0,0,0,0,0,0,0,0,0,-4.3259,-4.3224,-4.332,-4.3304,-4.3303,-4.3351,-4.3352,-4.3352,-4.3311,-4.3309,-4.3306,-4.3304,-4.3332,-4.3335,-4.3338,-4.3402,0,0,-4.3347,-4.3349,0,0,0,0,0,0,0,0,-4.3257,-4.3263,-4.3306,-4.3305,-4.3304,-4.3325,-4.3327,-4.3369,-4.3311,-4.3308,-4.3306,-4.3303,-4.3332,-4.3335,-4.3345,-4.3403,-4.3404,-4.3348,-4.335,-4.3351,-4.3352,0,0,0,0,0,0,0,-4.3255,-4.3261,-4.3332,-4.3307,-4.3305,-4.3294,-4.3297,-4.3334,-4.3332,-4.3308,-4.3305,-4.3309,-4.3331,-4.3342,-4.3346,-4.3405,-4.3348,-4.335,-4.3352,-4.3354,-4.3518,-4.352,0,0,0,0,0,0,-4.3254,-4.3259,-4.3331,-4.3333,-4.3275,-4.3298,-4.3301,-4.332,-4.3331,-4.3331,-4.3311,-4.3307,-4.3338,-4.3342,-4.3346,-4.3423,-4.3351,-4.3354,-4.3356,-4.3515,-4.3518,-4.3521,0,0,0,0,0,0,-4.3252,-4.3261,-4.333,-4.3296,-4.3304,-4.3302,-4.3324,-4.3322,-4.3334,-4.3334,-4.3333,-4.3324,-4.3336,-4.3342,-4.3389,-4.3423,-4.3355,-4.3358,-4.3513,-4.3516,-4.352,-4.3576,0,0,0,0,0,0,-4.325,-4.3261,-4.3286,-4.3297,-4.3306,-4.3373,-4.3326,-4.3324,-4.334,-4.3335,-4.3345,-4.3345,-4.3335,-4.3385,-4.3392,-4.3426,-4.3361,-4.3509,-4.3514,-4.3519,-4.3571,-4.3581,-4.359,0,0,0,0,0,-4.3246,-4.3299,-4.3287,-4.3296,-4.3337,-4.3375,-4.338,-4.3369,-4.3343,-4.3367,-4.3368,-4.3345,-4.3419,-4.339,-4.3398,-4.3433,-4.3507,-4.3513,-4.3518,-4.3567,-4.3579,-4.3589,0,0,0,0,0,0,-4.3289,-4.33,-4.3287,-4.3345,-4.336,-4.3368,-4.3399,-4.3382,-4.3404,-4.3398,-4.3382,-4.3385,-4.3435,-4.3439,-4.3407,-4.3497,-4.3458,-4.3466,-4.3492,-4.3504,-4.3513,-4.3511,-4.3363,0,0,0,0,0,-4.3306,-4.3338,-4.3345,-4.3395,-4.3403,-4.34,-4.3416,-4.3407,-4.3421,-4.3426,-4.343,-4.3444,-4.347,-4.3487,-4.3511,-4.3572,-4.3573,-4.36,-4.361,-4.3617,-4.3624,-4.3656,-4.3668,-4.3539,-4.3539,-4.3539,0,0,-4.334,-4.335,-4.337,-4.3404,-4.3414,-4.3447,-4.3405,-4.3441,-4.3464,-4.3431,-4.3476,-4.348,-4.3494,-4.3548,-4.3572,-4.3553,-4.366,-4.3625,-4.3631,-4.3633,-4.3663,-4.3676,-4.3686,-4.3543,-4.3542,-4.3542,0,0,-4.3418,-4.3429,-4.3473,-4.3485,-4.3502,-4.35,-4.3511,-4.3522,-4.3524,-4.357,-4.3546,-4.3573,-4.3619,-4.363,-4.3642,-4.3727,-4.3706,-4.3735,-4.3784,-4.3816,-4.3826,-4.3835,-4.3865,-4.3876,-4.3742,-4.3742,-4.3742,0,-4.3457,-4.3506,-4.3496,-4.3534,-4.355,-4.3525,-4.3568,-4.358,-4.3604,-4.3614,-4.3593,-4.3651,-4.3658,-4.3715,-4.3737,-4.3747,-4.3758,-4.3733,-4.3826,-4.3834,-4.3843,-4.3871,-4.3883,-4.3745,-4.3745,-4.3745,-4.3744,0,-4.3553,-4.3588,-4.3621,-4.3647,-4.3666,-4.3707,-4.3703,-4.3723,-4.3713,-4.3713,-4.376,-4.3769,-4.3795,-4.3808,-4.3797,-4.3864,-4.3851,-4.3828,-4.3789,-4.3858,-4.3885,-4.3896,-4.375,-4.3749,-4.3748,-4.3747,0,0,-4.3656,-4.368,-4.3692,-4.3704,-4.3723,-4.3748,-4.3788,-4.3816,-4.3834,-4.3851,-4.3884,-4.3924,-4.3904,-4.3917,-4.3908,-4.3936,-4.4004,-4.3909,-4.3909,-4.3926,-4.4077,-4.4094,-4.4107,-4.3991,-4.3993,-4.3995,-4.4076,0,-4.3734,-4.3805,-4.3799,-4.3865,-4.3897,-4.3874,-4.3909,-4.3924,-4.3926,-4.3952,-4.3953,-4.3982,-4.3953,-4.3961,-4.3988,-4.399,-4.4033,-4.3984,-4.4019,-4.4021,-4.4016,-4.4121,-4.4138,-4.4214,-4.4086,-4.4088,-4.4089,0,-4.3834,-4.3858,-4.3928,-4.3944,-4.3957,-4.3988,-4.4014,-4.404,-4.4056,-4.4056,-4.4072,-4.4059,-4.4098,-4.406,-4.4113,-4.408,-4.4094,-4.4097,-4.41,-4.4102,-4.4058,-4.4125,-4.4239,-4.425,-4.4106,-4.4105,-4.4103,0,-4.3902,-4.3952,-4.4001,-4.4012,-4.4031,-4.4054,-4.4063,-4.4078,-4.4095,-4.4117,-4.4128,-4.4154,-4.4168,-4.4188,-4.4181,-4.4154,-4.4236,-4.4197,-4.4236,-4.4236,-4.4252,-4.4251,-4.437,-4.4264,-4.4264,-4.4264,-4.4263,0,-4.3988,-4.4032,-4.4032,-4.4061,-4.411,-4.4103,-4.415,-4.4156,-4.417,-4.42,-4.4182,-4.421,-4.42,-4.4228,-4.4223,-4.4268,-4.4274,-4.4274,-4.4272,-4.4275,-4.4275,-4.4283,-4.4277,-4.4267,-4.4266,-4.4265,-4.4265,0,-4.4071,-4.4073,-4.4124,-4.414,-4.4145,-4.418,-4.4193,-4.4221,-4.4223,-4.4261,-4.4269,-4.4271,-4.4303,-4.4299,-4.4334,-4.4331,-4.4386,-4.4378,-4.4381,-4.4379,-4.4418,-4.4414,-4.4544,-4.4561,-4.4446,-4.4447,-4.4448,0,-4.4125,-4.4159,-4.418,-4.42,-4.4211,-4.4243,-4.4262,-4.4257,-4.4277,-4.43,-4.4324,-4.4355,-4.4379,-4.4431,-4.4434,-4.4461,-4.4453,-4.4497,-4.4456,-4.4459,-4.4453,-4.445,-4.4453,-4.4504,-4.4505,-4.4506,-4.4507,0,-4.4222,-4.4222,-4.4251,-4.4281,-4.4305,-4.4327,-4.4348,-4.4365,-4.4361,-4.4385,-4.4418,-4.4438,-4.4475,-4.4505,-4.4531,-4.4538,-4.4522,-4.4521,-4.4531,-4.4533,-4.4534,-4.4534,-4.4402,-4.4517,-4.4516,-4.4515,-4.4515,-4.4514,-4.4291,-4.4321,-4.4341,-4.4374,-4.439,-4.441,-4.4438,-4.4444,-4.4473,-4.4504,-4.4499,-4.4537,-4.4553,-4.4587,-4.4598,-4.4626,-4.461,-4.4625,-4.4628,-4.4632,-4.4636,-4.4531,-4.4631,-4.4631,-4.463,-4.463,-4.463,0,-4.4386,-4.4399,-4.443,-4.4461,-4.4487,-4.4473,-4.4496,-4.4518,-4.4552,-4.4571,-4.4596,-4.4635,-4.4665,-4.4672,-4.4701,-4.4722,-4.4716,-4.473,-4.4727,-4.473,-4.4649,-4.4637,-4.4735,-4.4735,-4.4735,-4.4735,-4.4735,-4.4735,-4.4439,-4.4488,-4.4491,-4.4548,-4.456,-4.4599,-4.4613,-4.4631,-4.4646,-4.4691,-4.4717,-4.4723,-4.4737,-4.4767,-4.4794,-4.4795,-4.4806,-4.4823,-4.4821,-4.4746,-4.4735,-4.4725,-4.4714,-4.4826,-4.4826,-4.4899,-4.49,-4.49]}]]